Latest Coastal Weather Observations for Middle Percy Island

IDQ60701

Issued at 8:25 pm EST Thursday 23 October 2014 (issued every 10 minutes, with the page automatically refreshed every 10 minutes)

About coastal observations | Map of coastal stations | Coastal observations for QLD | Marine services | Other Formats
Station Details ID: 200001 Name: MIDDLE PERCY ISLAND Lat: -21.66 Lon: 150.27 Height: 208.7 m
Data from the previous 72 hours. | See also: Recent months at Middle Percy Island
Date/Time
EST
Temp

°C
Wind Pressure Rain
since 9am
mm
Weather Cloud Vis
km
Sea
Height
m
Swell
Dir
 
Speed
knots
Gust
knots
hPa Trend Height
m
Period
s
Dir
23/08:00pm 19.7 E 6 12 1019.6 - 0.0 - - - - - - -
23/07:30pm 19.8 E 7 14 1019.6 - 0.0 - - - - - - -
23/07:00pm 19.9 ESE 10 16 1019.4 - 0.0 - - - - - - -
23/06:30pm 20.1 ESE 10 17 1019.1 - 0.0 - - - - - - -
23/06:00pm 20.3 SE 13 18 1018.6 - 0.0 - - - - - - -
23/05:30pm 20.9 SE 14 18 1018.4 - 0.0 - - - - - - -
23/05:00pm 21.6 SE 11 16 1018.0 - 0.0 - - - - - - -
23/04:30pm 21.9 SE 13 17 1017.6 - 0.0 - - - - - - -
23/04:00pm 22.4 ESE 13 18 1017.6 - 0.0 - - - - - - -
23/03:30pm 22.9 ESE 13 17 1017.5 - 0.0 - - - - - - -
23/03:00pm 23.5 SE 12 17 1017.6 - 0.0 - - - - - - -
23/02:30pm 23.2 ESE 13 18 1017.9 - 0.0 - - - - - - -
23/02:00pm 23.5 ESE 14 18 1018.0 - 0.0 - - - - - - -
23/01:30pm 23.4 ESE 15 19 1018.2 - 0.0 - - - - - - -
23/01:00pm 23.6 SE 16 21 1018.6 - 0.0 - - - - - - -
23/12:30pm 23.9 SE 17 23 1018.8 - 0.0 - - - - - - -
23/12:00pm 23.7 SE 15 20 1019.4 - 0.0 - - - - - - -
23/11:30am 23.8 SE 15 20 1019.7 - 0.0 - - - - - - -
23/11:00am 24.0 SE 14 22 1019.8 - 0.0 - - - - - - -
23/10:30am 24.2 SE 15 22 1020.1 - 0.0 - - - - - - -
23/10:00am 23.3 SE 17 23 1020.1 - 0.0 - - - - - - -
23/09:30am 22.9 SE 17 22 1020.2 - 0.0 - - - - - - -
23/09:00am 22.6 SE 16 22 1020.4 - 0.0 - - - - - - -
23/08:30am 21.7 SE 17 25 1020.2 - 0.0 - - - - - - -
23/08:00am 21.8 SE 15 25 1020.2 - 0.0 - - - - - - -
23/07:30am 20.7 SSE 15 21 1020.2 - 0.0 - - - - - - -
23/07:00am 20.9 SSE 15 21 1020.0 - 0.0 - - - - - - -
23/06:30am 20.3 SSE 13 18 1019.7 - 0.0 - - - - - - -
23/06:00am 19.7 SSE 14 19 1019.5 - 0.0 - - - - - - -
23/05:30am 19.2 SSE 13 18 1019.2 - 0.0 - - - - - - -
23/05:00am 19.2 SSE 13 18 1019.0 - 0.0 - - - - - - -
23/04:30am 19.4 SSE 13 17 1018.9 - 0.0 - - - - - - -
23/04:00am 19.6 SSE 13 18 1018.7 - 0.0 - - - - - - -
23/03:30am 19.5 SSE 13 17 1018.7 - 0.0 - - - - - - -
23/03:00am 19.7 SE 12 17 1018.8 - 0.0 - - - - - - -
23/02:30am 19.7 SE 12 18 1019.0 - 0.0 - - - - - - -
23/02:00am 20.0 SE 11 16 1019.4 - 0.0 - - - - - - -
23/01:30am 19.9 SE 14 18 1019.7 - 0.0 - - - - - - -
23/01:00am 20.1 ESE 12 19 1020.2 - 0.0 - - - - - - -
23/12:30am 19.9 ESE 9 15 1020.6 - 0.0 - - - - - - -
23/12:00am 20.0 ESE 8 15 1020.7 - 0.0 - - - - - - -
 
Date/Time
EST
Temp

°C
Wind Pressure Rain
since 9am
mm
Weather Cloud Vis
km
Sea
Height
m
Swell
Dir
 
Speed
knots
Gust
knots
hPa Trend Height
m
Period
s
Dir
22/11:30pm 20.1 E 9 16 1020.8 - 0.0 - - - - - - -
22/11:00pm 19.9 ESE 6 14 1020.8 - 0.0 - - - - - - -
22/10:30pm 20.0 E 10 22 1020.8 - 0.0 - - - - - - -
22/10:00pm 20.0 E 11 19 1020.7 - 0.0 - - - - - - -
22/09:30pm 20.1 ESE 10 22 1020.4 - 0.0 - - - - - - -
22/09:00pm 20.0 ESE 10 19 1020.5 - 0.0 - - - - - - -
22/08:30pm 20.1 ESE 18 29 1020.5 - 0.0 - - - - - - -
22/08:23pm 20.1 ESE 19 29 1020.5 - 0.0 - - - - - - -
22/08:00pm 20.1 ESE 19 26 1020.4 - 0.0 - - - - - - -
22/07:30pm 20.1 SE 19 27 1020.1 - 0.0 - - - - - - -
22/07:00pm 20.1 SE 18 27 1020.1 - 0.0 - - - - - - -
22/06:30pm 20.1 SE 19 27 1019.9 - 0.0 - - - - - - -
22/06:00pm 20.2 SE 18 25 1019.7 - 0.0 - - - - - - -
22/05:30pm 20.6 SE 18 25 1019.6 - 0.0 - - - - - - -
22/05:14pm 21.0 SE 17 28 1019.5 - 0.0 - - - - - - -
22/05:00pm 21.3 SE 18 26 1019.5 - 0.0 - - - - - - -
22/04:30pm 21.7 SSE 19 27 1019.2 - 0.0 - - - - - - -
22/04:00pm 21.7 SSE 20 28 1019.0 - 0.0 - - - - - - -
22/03:38pm 22.1 SE 19 29 1018.9 - 0.0 - - - - - - -
22/03:30pm 22.2 SE 17 26 1018.9 - 0.0 - - - - - - -
22/03:00pm 22.8 SE 19 28 1018.8 - 0.0 - - - - - - -
22/02:30pm 23.0 SE 20 27 1019.1 - 0.0 - - - - - - -
22/02:22pm 23.1 SSE 17 27 1019.1 - 0.0 - - - - - - -
22/02:00pm 23.5 SE 20 30 1019.3 - 0.0 - - - - - - -
22/01:55pm 23.2 SE 19 30 1019.3 - 0.0 - - - - - - -
22/01:30pm 23.9 SE 19 27 1019.6 - 0.0 - - - - - - -
22/01:14pm 24.2 SE 18 28 1019.8 - 0.0 - - - - - - -
22/01:00pm 23.8 SSE 21 27 1019.7 - 0.0 - - - - - - -
22/12:30pm 23.7 SSE 19 28 1020.1 - 0.0 - - - - - - -
22/12:00pm 23.6 SSE 21 27 1020.5 - 0.0 - - - - - - -
22/11:30am 24.3 SE 16 25 1021.1 - 0.0 - - - - - - -
22/11:00am 23.8 SSE 15 20 1021.3 - 0.0 - - - - - - -
22/10:30am 23.9 SSE 16 22 1021.5 - 0.0 - - - - - - -
22/10:00am 23.1 SE 12 16 1021.8 - 0.0 - - - - - - -
22/09:30am 22.8 SE 14 18 1021.9 - 0.0 - - - - - - -
22/09:00am 22.6 SE 13 18 1021.8 - 0.0 - - - - - - -
22/08:30am 23.3 ESE 14 19 1022.0 - 0.0 - - - - - - -
22/08:00am 22.3 SE 16 22 1021.7 - 0.0 - - - - - - -
22/07:30am 22.0 ESE 13 19 1021.7 - 0.0 - - - - - - -
22/07:00am 20.9 ESE 13 19 1021.6 - 0.0 - - - - - - -
22/06:30am 20.6 ESE 12 19 1021.4 - 0.0 - - - - - - -
22/06:00am 20.3 ESE 12 19 1021.0 - 0.0 - - - - - - -
22/05:30am 20.3 ESE 12 20 1020.7 - 0.0 - - - - - - -
22/05:00am 20.2 ESE 12 23 1020.7 - 0.0 - - - - - - -
22/04:30am 20.0 ESE 10 21 1020.5 - 0.0 - - - - - - -
22/04:19am 20.2 ESE 15 25 1020.4 - 0.0 - - - - - - -
22/04:00am 20.3 ESE 20 26 1020.3 - 0.0 - - - - - - -
22/03:30am 20.3 ESE 17 25 1020.2 - 0.0 - - - - - - -
22/03:00am 20.1 ESE 18 24 1020.5 - 0.0 - - - - - - -
22/02:30am 20.0 ESE 16 24 1020.8 - 0.0 - - - - - - -
22/02:00am 19.9 ESE 17 24 1020.7 - 0.0 - - - - - - -
22/01:30am 19.9 SE 19 29 1020.9 - 0.0 - - - - - - -
22/01:24am 19.9 SE 19 29 1021.0 - 0.0 - - - - - - -
22/01:00am 20.0 SE 19 26 1021.5 - 0.0 - - - - - - -
22/12:30am 19.9 SE 17 23 1022.0 - 0.0 - - - - - - -
22/12:00am 20.0 SE 18 26 1022.4 - 0.0 - - - - - - -
 
Date/Time
EST
Temp

°C
Wind Pressure Rain
since 9am
mm
Weather Cloud Vis
km
Sea
Height
m
Swell
Dir
 
Speed
knots
Gust
knots
hPa Trend Height
m
Period
s
Dir
21/11:30pm 20.1 SE 18 25 1022.6 - 0.0 - - - - - - -
21/11:00pm 20.1 SE 19 28 1022.6 - 0.0 - - - - - - -
21/10:30pm 20.1 SE 17 25 1022.9 - 0.0 - - - - - - -
21/10:00pm 20.2 SE 18 26 1023.0 - 0.0 - - - - - - -
21/09:30pm 20.3 SE 20 29 1022.9 - 0.0 - - - - - - -
21/09:00pm 20.1 SE 18 26 1022.8 - 0.0 - - - - - - -
21/08:30pm 20.3 SE 20 28 1022.8 - 0.0 - - - - - - -
21/08:00pm 20.3 SE 18 26 1022.4 - 0.0 - - - - - - -
21/07:30pm 20.3 SE 17 25 1022.3 - 0.0 - - - - - - -
21/07:00pm 20.3 SE 18 24 1021.9 - 0.0 - - - - - - -
21/06:30pm 20.4 SE 17 25 1021.7 - 0.0 - - - - - - -
21/06:00pm 20.6 SE 17 24 1021.4 - 0.0 - - - - - - -
21/05:36pm 21.0 SE 17 28 1021.1 - 0.0 - - - - - - -
21/05:30pm 21.1 SE 18 26 1021.1 - 0.0 - - - - - - -
21/05:05pm 21.1 SE 17 27 1020.9 - 0.0 - - - - - - -
21/05:00pm 21.4 SE 16 25 1021.0 - 0.0 - - - - - - -
21/04:30pm 21.6 SSE 18 27 1020.5 - 0.0 - - - - - - -
21/04:00pm 22.1 SE 18 26 1020.3 - 0.0 - - - - - - -
21/03:30pm 22.9 SE 17 26 1020.4 - 0.0 - - - - - - -
21/03:13pm 22.6 SE 17 29 1020.4 - 0.0 - - - - - - -
21/03:00pm 23.1 SE 17 23 1020.5 - 0.0 - - - - - - -
21/02:30pm 22.3 SE 17 25 1020.8 - 0.0 - - - - - - -
21/02:24pm 23.0 SE 17 27 1020.9 - 0.0 - - - - - - -
21/02:00pm 22.0 SE 17 25 1021.2 - 0.0 - - - - - - -
21/01:30pm 22.2 SE 18 26 1021.1 - 0.0 - - - - - - -
21/01:04pm 22.7 SE 15 26 1021.5 - 0.0 - - - - - - -
21/01:00pm 22.2 SE 17 26 1021.5 - 0.0 - - - - - - -
21/12:30pm 21.1 SE 21 35 1021.9 - 0.0 - - - - - - -
21/12:25pm 22.5 SE 19 29 1021.9 - 0.0 - - - - - - -
21/12:00pm 23.5 SE 17 25 1022.2 - 0.0 - - - - - - -
21/11:33am 22.5 SE 16 28 1022.4 - 0.0 - - - - - - -
21/11:30am 22.4 SE 15 25 1022.4 - 0.0 - - - - - - -
21/11:03am 20.6 SSE 15 26 1022.7 - 0.0 - - - - - - -
21/11:00am 20.6 SSE 16 26 1022.8 - 0.0 - - - - - - -
21/10:30am 22.2 SE 16 26 1022.9 - 0.0 - - - - - - -
21/10:22am 21.7 SE 17 28 1022.8 - 0.0 - - - - - - -
21/10:00am 24.1 SE 16 23 1022.8 - 0.0 - - - - - - -
21/09:30am 22.0 SSE 17 25 1022.9 - 0.0 - - - - - - -
21/09:00am 22.5 SE 18 25 1023.0 - 0.4 - - - - - - -
21/08:30am 23.1 ESE 17 25 1022.7 - 0.4 - - - - - - -
21/08:00am 22.5 ESE 18 24 1022.4 - 0.4 - - - - - - -
21/07:30am 22.1 ESE 19 28 1022.2 - 0.4 - - - - - - -
21/07:21am 22.2 ESE 18 28 1022.2 - 0.4 - - - - - - -
21/07:00am 21.7 ESE 17 24 1021.9 - 0.4 - - - - - - -
21/06:30am 21.3 ESE 18 26 1021.4 - 0.4 - - - - - - -
21/06:00am 20.8 ESE 16 23 1021.1 - 0.4 - - - - - - -
21/05:30am 20.6 ESE 13 22 1020.8 - 0.4 - - - - - - -
21/05:00am 20.3 ESE 8 14 1020.5 - 0.4 - - - - - - -
21/04:30am 20.0 ESE 14 19 1020.1 - 0.4 - - - - - - -
21/04:00am 19.6 SE 14 19 1019.9 - 0.4 - - - - - - -
21/03:30am 20.2 SE 15 21 1019.7 - 0.0 - - - - - - -
21/03:00am 19.9 SE 13 20 1019.6 - 0.0 - - - - - - -
21/02:30am 20.1 SE 16 22 1019.7 - 0.0 - - - - - - -
21/02:00am 19.9 ESE 16 22 1020.0 - 0.0 - - - - - - -
21/01:30am 19.9 ESE 13 20 1020.6 - 0.0 - - - - - - -
21/01:00am 19.9 ESE 13 21 1020.7 - 0.0 - - - - - - -
21/12:30am 19.9 ESE 13 20 1021.2 - 0.0 - - - - - - -
21/12:00am 20.0 ESE 14 22 1021.6 - 0.0 - - - - - - -
 
Date/Time
EST
Temp

°C
Wind Pressure Rain
since 9am
mm
Weather Cloud Vis
km
Sea
Height
m
Swell
Dir
 
Speed
knots
Gust
knots
hPa Trend Height
m
Period
s
Dir
20/11:30pm 19.9 ESE 11 18 1022.1 - 0.0 - - - - - - -
20/11:00pm 19.8 ESE 10 16 1022.4 - 0.0 - - - - - - -
20/10:30pm 20.0 ESE 13 20 1022.9 - 0.0 - - - - - - -
20/10:00pm 20.0 SE 16 22 1022.8 - 0.0 - - - - - - -
20/09:30pm 20.2 ESE 16 24 1022.8 - 0.0 - - - - - - -
20/09:00pm 20.2 ESE 17 24 1022.6 - 0.0 - - - - - - -
20/08:30pm 20.2 ESE 16 22 1022.3 - 0.0 - - - - - - -

Other Formats:

Comma delimited format used in spreadsheet applications
http://www.bom.gov.au/fwo/IDQ60701/IDQ60701.94372.axf

JavaScript Object Notation format (JSON) in row-major order
http://www.bom.gov.au/fwo/IDQ60701/IDQ60701.94372.json